North Bend, OR

4:13 AM PST on December 07, 2016 (GMT -0800)
North Bend Municipal

Weather History for KOTH - February, 2012

Change the Weather History Date:

Thursday, February 23, 2012

  Actual Average Record
Temperature  
Mean Temperature 44 °F 47 °F  
Max Temperature 52 °F 53 °F 72 °F (1921)
Min Temperature 36 °F 40 °F 24 °F (1920)
Degree Days  
Heating Degree Days 21 18  
Month to date heating degree days 411 431  
Since 1 July heating degree days 3007 3086  
Cooling Degree Days 0 0  
Month to date cooling degree days 0 0  
Year to date cooling degree days 0 0  
Moisture  
Dew Point 33 °F    
Average Humidity 66    
Maximum Humidity 79    
Minimum Humidity 50    
Precipitation  
Precipitation 0.00 in 0.27 in 1.16 in (2010)
Month to date precipitation 2.28 6.21  
Year to date precipitation 7.04 16.40  
Sea Level Pressure  
Sea Level Pressure 30.48 in    
Wind  
Wind Speed 7 mph (NE)    
Max Wind Speed 18 mph    
Max Gust Speed 23 mph    
Visibility 9 miles    
Events      
T = Trace of Precipitation, MM = Missing Value Source: NWS Daily Summary

Daily Weather History Graph

Daily Weather History Graph

Search for Another Location

Airport or City:

Trip Planner

Search our weather history database for the weather conditions in past years. The results will help you decide how hot, cold, wet, or windy it might be!

Date:

Astronomy

Feb. 23, 2012 Rise Set
Actual Time 7:03 AM PST 5:57 PM PST
Civil Twilight 6:34 AM PST 6:26 PM PST
Nautical Twilight 6:01 AM PST 6:59 PM PST
Astronomical Twilight 5:28 AM PST 7:32 PM PST
Moon 7:27 AM PST (2/23) 8:14 PM PST (2/23)
Length of Visible Light 11h 51m
Length of Day
10h 54m
Waxing Crescent, 4% of the Moon is Illuminated
Feb 23
Waxing Crescent
Feb 29
First Quarter
Mar 8
Full
Mar 14
Last Quarter
Mar 22
New

Hourly Weather History & Observations

Time (PST) Temp. Windchill Dew Point Humidity Pressure Visibility Wind Dir Wind Speed Gust Speed Precip Events Conditions
12:15 AM 42.8 °F 39.3 °F 33.8 °F 70% 30.50 in 10.0 mi NNE 5.8 mph - N/A   Mostly Cloudy
12:35 AM 42.8 °F 40.1 °F 33.8 °F 70% 30.50 in 10.0 mi NE 4.6 mph - N/A   Mostly Cloudy
12:55 AM 42.8 °F 39.3 °F 33.8 °F 70% 30.50 in 10.0 mi NNE 5.8 mph - N/A   Mostly Cloudy
1:15 AM 42.8 °F 40.1 °F 33.8 °F 70% 30.51 in 10.0 mi NNE 4.6 mph - N/A   Mostly Cloudy
1:35 AM 41.0 °F 38.0 °F 33.8 °F 76% 30.50 in 10.0 mi NNE 4.6 mph - N/A   Partly Cloudy
1:55 AM 39.2 °F 37.0 °F 33.8 °F 81% 30.51 in 10.0 mi NE 3.5 mph - N/A   Clear
2:15 AM 37.4 °F 32.8 °F 30.2 °F 75% 30.51 in 7.0 mi SSE 5.8 mph - N/A   Partly Cloudy
2:35 AM 37.4 °F 33.8 °F 30.2 °F 75% 30.52 in 1.0 mi SSE 4.6 mph - N/A   Overcast
2:55 AM 37.4 °F 32.8 °F 30.2 °F 75% 30.52 in 1.2 mi SSE 5.8 mph - N/A   Overcast
3:15 AM 37.4 °F 32.8 °F 30.2 °F 75% 30.52 in 1.8 mi SSE 5.8 mph - N/A   Overcast
3:35 AM 37.4 °F 33.8 °F 30.2 °F 75% 30.52 in 7.0 mi SSE 4.6 mph - N/A   Scattered Clouds
3:55 AM 37.4 °F 33.8 °F 30.2 °F 75% 30.52 in 10.0 mi SSE 4.6 mph - N/A   Clear
4:15 AM 35.6 °F 29.9 °F 30.2 °F 81% 30.52 in 8.0 mi SSE 6.9 mph - N/A   Clear
4:35 AM 37.4 °F 34.9 °F 30.2 °F 75% 30.52 in 10.0 mi South 3.5 mph - N/A   Mostly Cloudy
4:55 AM 39.2 °F 35.9 °F 32.0 °F 75% 30.52 in 10.0 mi SE 4.6 mph - N/A   Overcast
5:15 AM 39.2 °F 37.0 °F 32.0 °F 75% 30.52 in 10.0 mi SSE 3.5 mph - N/A   Overcast
5:35 AM 37.4 °F 34.9 °F 30.2 °F 75% 30.52 in 10.0 mi SSE 3.5 mph - N/A   Scattered Clouds
5:55 AM 37.4 °F 32.8 °F 30.2 °F 75% 30.52 in 10.0 mi SE 5.8 mph - N/A   Partly Cloudy
6:15 AM 35.6 °F 31.7 °F 30.2 °F 81% 30.52 in 10.0 mi SSE 4.6 mph - N/A   Mostly Cloudy
6:35 AM 39.2 °F 37.0 °F 32.0 °F 75% 30.51 in 10.0 mi ESE 3.5 mph - N/A   Overcast
6:55 AM 39.2 °F - 33.8 °F 81% 30.51 in 10.0 mi Calm Calm - N/A   Overcast
7:15 AM 39.2 °F - 32.0 °F 75% 30.52 in 10.0 mi Calm Calm - N/A   Overcast
7:35 AM 39.2 °F - 33.8 °F 81% 30.52 in 10.0 mi Calm Calm - N/A   Overcast
7:55 AM 39.2 °F - 33.8 °F 81% 30.52 in 10.0 mi Calm Calm - N/A   Mostly Cloudy
8:15 AM 41.0 °F 39.0 °F 33.8 °F 76% 30.53 in 10.0 mi ESE 3.5 mph - N/A   Clear
8:35 AM 41.0 °F 38.0 °F 35.6 °F 81% 30.53 in 10.0 mi ESE 4.6 mph - N/A   Clear
8:55 AM 42.8 °F 41.1 °F 35.6 °F 76% 30.53 in 10.0 mi ESE 3.5 mph - N/A   Clear
9:15 AM 42.8 °F 40.1 °F 33.8 °F 70% 30.53 in 10.0 mi SE 4.6 mph - N/A   Clear
9:35 AM 44.6 °F - 35.6 °F 71% 30.52 in 10.0 mi Calm Calm - N/A   Clear
9:55 AM 46.4 °F 43.5 °F 35.6 °F 66% 30.53 in 10.0 mi NE 5.8 mph - N/A   Clear
10:15 AM 48.2 °F - 33.8 °F 58% 30.52 in 10.0 mi NE 9.2 mph - N/A   Clear
10:35 AM 48.2 °F - 33.8 °F 58% 30.53 in 10.0 mi NE 5.8 mph - N/A   Clear
10:55 AM 48.2 °F - 33.8 °F 58% 30.52 in 10.0 mi NNE 8.1 mph - N/A   Clear
11:15 AM 50.0 °F - 32.0 °F 50% 30.52 in 10.0 mi ENE 6.9 mph - N/A   Clear
11:35 AM 50.0 °F - 32.0 °F 50% 30.51 in 10.0 mi NE 6.9 mph - N/A   Clear
11:55 AM 51.8 °F - 33.8 °F 50% 30.50 in 10.0 mi NNE 5.8 mph - N/A   Clear
12:15 PM 51.8 °F - 33.8 °F 50% 30.48 in 10.0 mi North 6.9 mph - N/A   Clear
12:35 PM 51.8 °F - 33.8 °F 50% 30.48 in 10.0 mi North 5.8 mph - N/A   Clear
12:55 PM 51.8 °F - 33.8 °F 50% 30.47 in 10.0 mi North 10.4 mph - N/A   Partly Cloudy
1:15 PM 51.8 °F - 33.8 °F 50% 30.47 in 10.0 mi North 13.8 mph - N/A   Partly Cloudy
1:35 PM 50.0 °F - 33.8 °F 54% 30.46 in 10.0 mi NNW 16.1 mph - N/A   Clear
1:55 PM 50.0 °F - 33.8 °F 54% 30.46 in 10.0 mi NNW 18.4 mph - N/A   Clear
2:15 PM 50.0 °F - 33.8 °F 54% 30.46 in 10.0 mi NNW 17.3 mph - N/A   Clear
2:35 PM 48.2 °F - 32.0 °F 54% 30.46 in 10.0 mi NNW 18.4 mph - N/A   Clear
2:55 PM 50.0 °F - 33.8 °F 54% 30.45 in 10.0 mi North 17.3 mph 23.0 mph N/A   Clear
3:15 PM 48.2 °F - 33.8 °F 58% 30.44 in 10.0 mi North 16.1 mph 20.7 mph N/A   Clear
3:35 PM 48.2 °F - 33.8 °F 58% 30.44 in 10.0 mi North 15.0 mph - N/A   Clear
3:55 PM 48.2 °F - 33.8 °F 58% 30.43 in 10.0 mi North 17.3 mph - N/A   Clear
4:15 PM 48.2 °F - 33.8 °F 58% 30.42 in 10.0 mi North 17.3 mph - N/A   Clear
4:35 PM 48.2 °F - 33.8 °F 58% 30.41 in 10.0 mi North 17.3 mph - N/A   Clear
4:55 PM 48.2 °F - 33.8 °F 58% 30.41 in 10.0 mi North 17.3 mph - N/A   Clear
5:15 PM 46.4 °F 40.4 °F 33.8 °F 62% 30.39 in 10.0 mi North 13.8 mph - N/A   Clear
5:35 PM 46.4 °F 40.4 °F 33.8 °F 62% 30.39 in 8.0 mi North 13.8 mph - N/A   Clear
5:55 PM 46.4 °F 40.4 °F 33.8 °F 62% 30.39 in 5.0 mi North 13.8 mph - N/A   Clear
6:15 PM 44.6 °F 37.8 °F 33.8 °F 66% 30.40 in 7.0 mi North 15.0 mph - N/A   Clear
6:35 PM 44.6 °F 37.8 °F 33.8 °F 66% 30.40 in 9.0 mi North 15.0 mph - N/A   Clear
6:55 PM 44.6 °F 38.8 °F 33.8 °F 66% 30.40 in 8.0 mi NNE 11.5 mph - N/A   Clear
7:15 PM 44.6 °F 40.2 °F 33.8 °F 66% 30.39 in 7.0 mi NNE 8.1 mph - N/A   Clear
7:35 PM 42.8 °F 38.6 °F 33.8 °F 70% 30.39 in 8.0 mi NNE 6.9 mph - N/A   Clear
7:55 PM 42.8 °F 39.3 °F 33.8 °F 70% 30.38 in 9.0 mi NNE 5.8 mph - N/A   Clear
8:15 PM 42.8 °F 39.3 °F 32.0 °F 66% 30.38 in 9.0 mi North 5.8 mph - N/A   Clear
8:35 PM 42.8 °F 38.6 °F 32.0 °F 66% 30.38 in 8.0 mi North 6.9 mph - N/A   Clear
8:55 PM 41.0 °F 38.0 °F 32.0 °F 70% 30.38 in 8.0 mi NNE 4.6 mph - N/A   Clear
9:15 PM 41.0 °F 38.0 °F 33.8 °F 76% 30.38 in 10.0 mi NNE 4.6 mph - N/A   Clear
9:35 PM 39.2 °F - 32.0 °F 75% 30.38 in 10.0 mi Calm Calm - N/A   Clear
9:55 PM 39.2 °F - 32.0 °F 75% 30.38 in 10.0 mi Calm Calm - N/A   Clear
10:15 PM 37.4 °F 34.9 °F 30.2 °F 75% 30.37 in 9.0 mi SSE 3.5 mph - N/A   Clear
10:35 PM 37.4 °F 33.8 °F 28.4 °F 70% 30.36 in 8.0 mi SSE 4.6 mph - N/A   Clear
10:55 PM 37.4 °F 34.9 °F 30.2 °F 75% 30.36 in 9.0 mi SE 3.5 mph - N/A   Clear
11:15 PM 35.6 °F 30.7 °F 26.6 °F 70% 30.36 in 5.0 mi SE 5.8 mph - N/A   Clear
11:35 PM 37.4 °F 34.9 °F 30.2 °F 75% 30.35 in 10.0 mi SE 3.5 mph - N/A   Clear
11:55 PM 37.4 °F 33.8 °F 30.2 °F 75% 30.35 in 9.0 mi SSE 4.6 mph - N/A   Clear